Powrót do katalogu

COSMOS 375 DEB

AktywnyLEO
NORAD 18866·DEBRIS·🇷🇺 Russia

Wystrzelony Oct 30, 1970 z Baikonur Cosmodrome

Loading…

Następne Przeloty (najbliższe 24 godziny)

TLE

ŚwieżeSource: Space-Track

Epoka: Sep 14, 2026, 18:52 UTC

1 18866U 70091AV  26257.78658752  .00003077  00000-0  83581-3 0  9991
2 18866  62.6614  31.9390 0769798 135.4638 231.0961 13.45057958727079

Śledź COSMOS 375 DEB w czasie rzeczywistym z AllMySat

Download on the App Store